OKEAN-0
1 25860U 99039A 11201.97244273 .00000140 00000-0 28867-4 0 03842
2 25860 097.8873 167.4927 0000556 084.1863 275.9406 14.73805730645632
NOAA-16
1 26536U 00055A 11201.72075982 .00000122 00000-0 90876-4 0 03721
2 26536 099.1379 232.9415 0009700 300.5636 059.4581 14.12631807558099
NOAA-17
1 27453U 02032A 11201.75606046 .00000029 00000-0 30200-4 0 03609
2 27453 098.3769 239.9232 0012561 054.3413 305.8918 14.24293127471438
NOAA-18
1 28654U 05018A 11201.77109007 .00000426 00000-0 25934-3 0 08408
2 28654 098.9982 153.0043 0014567 014.1366 346.0205 14.11495646317666
NOAA-19
1 33591U 09005A 11201.77571193 -.00000063 00000-0 -10470-4 0 00314
2 33591 098.8281 141.3680 0013131 240.4688 119.5200 14.11184022126127
HUBBLE
1 20580U 90037B 11201.28828586 .00000600 00000-0 32644-4 0 8017
2 20580 028.4691 160.2129 0003585 116.6907 243.4152 15.01425223964633
ISS
1 25544U 98067A 11202.87696503 .00048952 00000-0 59157-3 0 7570
2 25544 051.6422 346.0977 0011648 349.5486 147.5303 15.60142338726323
CO-58
1 28895U 05043F 11201.64414643 .00000288 00000-0 69046-4 0 9279
2 28895 097.9609 076.7323 0018920 114.4801 245.8390 14.60134326305123
FALCON
1 30776U 07006E 11201.94907914 .00001228 00000-0 88310-4 0 01487
2 30776 035.4325 141.6701 0001797 358.9499 001.1224 15.04755276240130
MAST
1 31126U 07012K 11202.58742182 .00000330 00000-0 84163-4 0 2148
2 31126 097.8929 227.8674 0095518 064.0390 297.0602 14.53773879226083
CAPE1
1 31130U 07012P 11201.64122139 .00000446 00000-0 11231-3 0 02292
2 31130 097.8976 223.6916 0103541 077.5392 283.7399 14.52424224225495
COMPASS
1 32787U 08021E 11202.16130385 .00001095 00000-0 14260-3 0 432
2 32787 097.8452 265.3434 0016829 066.6393 293.6575 14.82502257174599
AAUSAT2
1 32788U 08021F 11201.71576226 .00000178 00000-0 28610-4 0 00358
2 32788 097.8463 265.1413 0016675 068.4797 291.8162 14.82687479174541
DO-64
1 32789U 08021G 11202.18645350 .00001089 00000-0 13953-3 0 496
2 32789 097.8555 266.6735 0016387 065.7219 294.5702 14.83199998174620
CO-66
1 32791U 08021J 11201.71263674 .00000317 00000-0 46262-4 0 00383
2 32791 097.8465 264.8331 0017265 066.9491 293.3507 14.82178206174477
RS-30
1 32953U 08025A 11202.75766418 .00000010 00000-0 00000 0 0 9234
2 32953 082.5031 141.2351 0018396 316.3390 043.6231 12.43014207143384
TACSAT-3
1 35001U 09028A 11202.53758290 .00014705 00000-0 25771-3 0 6475
2 35001 040.4543 323.9889 0020442 106.7660 253.5425 15.49974189122414
PHARMSAT
1 35002U 09028B 11202.51578307 .00012661 00000-0 22691-3 0 6021
2 35002 040.4706 322.0777 0022041 112.7185 247.6001 15.49394262122432
HAWKSAT1
1 35003U 09028C 11202.54868387 .00086388 00000-0 67968-3 0 6916
2 35003 040.4464 286.9138 0016408 128.9512 231.2777 15.70227909122825
CP6
1 35004U 09028D 11202.50879091 .00168790 00000-0 82278-3 0 6972
2 35004 040.4526 275.5800 0015025 124.7857 235.4541 15.80871267122935
METEOR-M
1 35865U 09049A 11202.70360566 .00000176 00000-0 10000-3 0 5677
2 35865 098.7046 257.3821 0002196 313.7895 046.3058 14.21840470 95499
RS-38
1 35869U 09049E 11202.69941451 .00000177 00000-0 10000-3 0 5601
2 35869 098.7017 257.4120 0004260 303.7481 056.3254 14.22016829 95503
